Simultaneous Nadir Overpasses (SNOs) Predictions

Prediction of SNOs between GOES-17 and METOP-C Satellite Orbit:

Table of predicted SNOs for the next 14.0 days since TLE Epoch: 2/13/2025
Index Date Time (GOES-17) GOES-17 Lat,Lon METOP-C Lat,Lon Distance(km) Time Diff (sec)
1 02/15/2025 04:39:12 0.00,-104.68 -0.46,-106.63 222.49 80
2 02/16/2025 04:15:52 0.01,-104.68 0.68,-101.64 346.78 80
3 02/17/2025 16:34:42 -0.01,-104.68 0.33,-106.20 172.44 80
4 02/18/2025 16:16:42 -0.01,-104.69 -0.76,-101.20 397.40 80
5 02/20/2025 04:35:42 0.00,-104.70 -0.23,-105.80 125.17 80
6 02/21/2025 04:12:22 0.00,-104.69 0.86,-100.80 443.90 80
7 02/22/2025 16:31:12 -0.00,-104.68 0.13,-105.36 76.31 80
8 02/23/2025 16:13:12 -0.00,-104.69 -0.97,-100.36 493.20 80
9 02/25/2025 04:32:11 0.01,-104.70 -0.07,-104.95 29.22 80
10 02/27/2025 16:30:21 -0.01,-104.68 -0.06,-104.51 19.08 80
